Regional Weather Roundup
Issued by NWS Northern Indiana

Home | Current Version | Previous Version | Text Only | Print | Product List | Glossary On
Versions: 1 2 3 4 5 6 7 8 9 10 11 12 13 14 15 16 17 18 19 20 21 22 23 24 25 26 27 28 29 30 31 32 33 34 35 36 37 38 39 40 41 42 43 44 45 46 47 48 49 50
172
ASUS43 KIWX 050000
RWRIWX

KIWX WEATHER ROUNDUP
NATIONAL WEATHER SERVICE NORTHERN INDIANA
700 PM EST SUN DEC 04 2016

NOTE: "FAIR" INDICATES FEW OR NO CLOUDS BELOW 12,000 FEET WITH NO
SIGNIFICANT WEATHER AND/OR OBSTRUCTIONS TO VISIBILITY.

* THESE STATIONS ARE NOT UNDER NWS QUALITY CONTROL. THEY ALSO MAY NOT
  REPORT WEATHER SUCH AS PRECIPITATION OR FOG.

INZ001>027-050100-
NORTHERN INDIANA

CITY           SKY/WX    TMP DP  RH WIND       PRES   REMARKS
GARY*          LGT SNOW  34  34 100 CALM      29.90S VSB 1
SOUTH BEND     LGT SNOW  32  32 100 SE5       29.88R VSB 1   WCI  27
6HR MIN TEMP:  32; 6HR MAX TEMP:  35; 6HR PCP:  0.37;

GOSHEN         LGT SNOW  33  30  88 SE8       29.86S VSB 1   WCI  26
6HR MIN TEMP:  33; 6HR MAX TEMP:  37; 6HR PCP:  0.24;

ANGOLA*        CLOUDY    32  30  93 SE9       29.84F WCI  24
FORT WAYNE     LGT SNOW  33  31  92 E10       29.85F FOG     WCI  25
6HR MIN TEMP:  32; 6HR MAX TEMP:  39; 6HR PCP:  0.29;


$$
INZ028>050-050100-
CENTRAL INDIANA

CITY           SKY/WX    TMP DP  RH WIND       PRES   REMARKS
LAFAYETTE      CLOUDY    32  32 100 CALM      29.87S FOG
6HR MIN TEMP:  31; 6HR MAX TEMP:  37; 6HR PCP:  0.28;

KOKOMO*        LGT RAIN  33  32  96 SE6       29.86F FOG     WCI  28
6HR MIN TEMP:  32; 6HR MAX TEMP:  38; 6HR PCP:  0.25;

MUNCIE*        LGT RAIN  36  34  92 SE9       29.84F FOG
6HR MIN TEMP:  35; 6HR MAX TEMP:  41; 6HR PCP:  0.21;

INDIANAPOLIS   LGT RAIN  40  39  97 SW10      29.87R
6HR MIN TEMP:  38; 6HR MAX TEMP:  41; 6HR PCP:  0.25;


$$
MIZ043>046-050>051-056>058-064>065-071>073-077>080-050100-
SOUTHWEST LOWER MICHIGAN

CITY           SKY/WX    TMP DP  RH WIND       PRES   REMARKS
BATTLE CREEK   LGT SNOW  33  32  96 SE9       29.85F VSB 1   WCI  25
6HR MIN TEMP:  33; 6HR MAX TEMP:  36; 6HR PCP:  0.16;

BENTON HARBOR  SNOW      33  31  92 CALM      29.87S VSB 1/2
6HR MIN TEMP:  33; 6HR MAX TEMP:  36; 6HR PCP:  0.38;

COLDWATER*     LGT SNOW  33  32  97 SE10G17   29.85F VSB 1   WCI  25
6HR MIN TEMP:  33; 6HR MAX TEMP:  37;

HILLSDALE*     LGT SNOW  32  32 100 E14G22    29.84F WCI  22
HOLLAND        LGT SNOW  33  31  92 NW3       29.89R VSB 1
6HR MIN TEMP:  33; 6HR MAX TEMP:  33; 6HR PCP:  0.30;

GRAND RAPIDS   LGT SNOW  33  31  92 SE9       29.86F VSB 3/4 WCI  25
6HR MIN TEMP:  32; 6HR MAX TEMP:  36; 6HR PCP:  0.27;

KALAMAZOO      SNOW      33  31  92 SE6       29.86F VSB 1/2 WCI  28
6HR MIN TEMP:  33; 6HR MAX TEMP:  37; 6HR PCP:  0.26;

STURGIS*       LGT SNOW  33  32  96 SE10      29.84F WCI  25
6HR MIN TEMP:  33; 6HR MAX TEMP:  37; 6HR PCP:  0.11;

THREE RIVERS*  LGT SNOW  33  33  99 SE3       29.87F VSB 1

$$
OHZ001>008-015>018-024>025-050100-
NORTHWEST OHIO

CITY           SKY/WX    TMP DP  RH WIND       PRES   REMARKS
DEFIANCE       LGT SNOW  34  31  88 E10       29.89F FOG     WCI  26
6HR MIN TEMP:  34; 6HR MAX TEMP:  41; 6HR PCP:  0.10;

FINDLAY        LGT SNOW  34  31  88 E6        29.90F VSB 1   WCI  29
6HR MIN TEMP:  34; 6HR MAX TEMP:  41; 6HR PCP:  0.11;

TOLEDO EXPRESS LGT SNOW  32  32 100 E9        29.91F FOG     WCI  24
6HR MIN TEMP:  32; 6HR MAX TEMP:  38; 6HR PCP:  0.06;

TOLEDO METCALF LGT SNOW  33  33 100 E8        29.94F VSB 1   WCI  26
6HR MIN TEMP:  33; 6HR MAX TEMP:  39; 6HR PCP:  0.04;

LIMA           LGT SNOW  33  33 100 E8        29.90F VSB 1   WCI  26
6HR MIN TEMP:  33; 6HR MAX TEMP:  40; 6HR PCP:  0.16;


$$
AND FOR LAKE MICHIGAN COASTAL AND OPEN LAKE BUOY OBSERVATIONS

STATION/POSITION TEMP    WIND        PRES    VSBY  WAVE
                 AIR SEA DIR/SP/G                  HT/PER
                 (F)     (DEG/KT/KT) (MB)    (MI)  (FT/S)
CALUMET HARBOR    32     300/  3/  5 1012.1F
BURNS HARBOR      34     270/  7/  8 1012.9R
SAINT JOSEPH      33      CALM  /  3 1012.5
SOUTH LAKE BUOY   36 48  160/ 10/ 14 1012.4          3/ 4

$$
&&




USA.gov is the U.S. government's official web portal to all federal, state and local government web resources and services.